Вернуться в каталог

STARLINK-34371

АктивенСвязьVLEO
NORAD 64756·PAYLOAD·🇺🇸 United States

Запущен Jul 8, 2025 с Cape Canaveral Space Force Station

Loading…

Ближайшие Пролёты (ближайшие 24 часа)

TLE

СвежийSource: CelesTrak SupGP

Эпоха: Sep 15, 2026, 03:31 UTC

1 64756C 25147B   26258.14701389 -.00025120  00000+0 -80802-3 0  2583
2 64756  53.1579  81.4177 0001178  88.7089  39.5811 15.31705533    16

Отслеживайте STARLINK-34371 в реальном времени с AllMySat

Download on the App Store